| time (UTC) | temp F | wind direction | speed MPH | gust MPH | rain 1hr in | rain 24hr in | rain mn in | humidity % | barometer mb |
| 20260507013051 | 78 | 265 | 1.0 | 8.0 | 0.00 | 0.00 | 0.00 | 94 | 1010.2 |
| 20260507011545 | 79 | 265 | 2.0 | 9.0 | 0.00 | 0.00 | 0.00 | 94 | 1010.1 |
| 20260507010054 | 79 | 163 | 3.0 | 9.0 | 0.00 | 0.00 | 0.00 | 93 | 1009.9 |
| 20260507004545 | 80 | 184 | 2.0 | 10.0 | 0.00 | 0.00 | 0.00 | 92 | 1009.7 |
| 20260507003039 | 80 | 173 | 1.0 | 14.0 | 0.00 | 0.00 | 0.00 | 91 | 1009.6 |
| 20260507001550 | 80 | 250 | 3.0 | 12.0 | 0.00 | 0.00 | 0.00 | 91 | 1009.6 |
| 20260507000045 | 80 | 165 | 3.0 | 8.0 | 0.00 | 0.00 | 0.00 | 90 | 1009.5 |
| 20260506234545 | 81 | 193 | 2.0 | 16.0 | 0.00 | 0.00 | 0.00 | 90 | 1009.3 |
| 20260506233056 | 81 | 173 | 4.0 | 16.0 | 0.00 | 0.00 | 0.00 | 90 | 1009.0 |
| 20260506231543 | 81 | 173 | 5.0 | 14.0 | 0.00 | 0.00 | 0.00 | 89 | 1009.0 |
| 20260506230042 | 82 | 238 | 5.0 | 15.0 | 0.00 | 0.00 | 0.00 | 88 | 1009.2 |
| 20260506224541 | 83 | 196 | 6.0 | 14.0 | 0.00 | 0.00 | 0.00 | 87 | 1009.1 |
| 20260506223044 | 82 | 193 | 5.0 | 17.0 | 0.00 | 0.00 | 0.00 | 87 | 1009.2 |
| 20260506221553 | 83 | 168 | 3.0 | 15.0 | 0.00 | 0.00 | 0.00 | 85 | 1009.2 |
| 20260506220036 | 83 | 171 | 5.0 | 13.0 | 0.00 | 0.00 | 0.00 | 85 | 1009.2 |
| 20260506214543 | 83 | 164 | 3.0 | 15.0 | 0.00 | 0.00 | 0.00 | 84 | 1009.2 |
| 20260506213038 | 84 | 207 | 5.0 | 15.0 | 0.00 | 0.00 | 0.00 | 83 | 1009.3 |
| 20260506211538 | 84 | 225 | 4.0 | 17.0 | 0.00 | 0.00 | 0.00 | 85 | 1009.2 |
| 20260506210045 | 83 | 196 | 6.0 | 12.0 | 0.00 | 0.00 | 0.00 | 86 | 1009.5 |
| 20260506204545 | 83 | 166 | 10.0 | 17.0 | 0.00 | 0.00 | 0.00 | 87 | 1009.4 |
| 20260506203043 | 82 | 142 | 5.0 | 12.0 | 0.00 | 0.00 | 0.00 | 88 | 1009.7 |
| 20260506201546 | 82 | 165 | 4.0 | 11.0 | 0.00 | 0.00 | 0.00 | 88 | 1010.0 |
| 20260506200046 | 82 | 155 | 3.0 | 14.0 | 0.00 | 0.00 | 0.00 | 88 | 1010.1 |
| 20260506194545 | 83 | 237 | 6.0 | 16.0 | 0.00 | 0.00 | 0.00 | 87 | 1010.2 |
| 20260506193044 | 83 | 159 | 7.0 | 13.0 | 0.00 | 0.00 | 0.00 | 87 | 1010.3 |
| 20260506191543 | 83 | 166 | 7.0 | 17.0 | 0.00 | 0.00 | 0.00 | 87 | 1010.3 |
| 20260506190043 | 83 | 171 | 9.0 | 15.0 | 0.00 | 0.00 | 0.00 | 87 | 1010.3 |
| 20260506184546 | 83 | 178 | 4.0 | 15.0 | 0.00 | 0.00 | 0.00 | 87 | 1010.9 |
| 20260506183039 | 82 | 167 | 5.0 | 12.0 | 0.00 | 0.00 | 0.00 | 88 | 1011.3 |
| 20260506181537 | 83 | 0 | 4.0 | 14.0 | 0.00 | 0.00 | 0.00 | 87 | 1011.4 |
| 20260506180049 | 82 | 165 | 5.0 | 12.0 | 0.00 | 0.00 | 0.00 | 88 | 1011.5 |
| 20260506174546 | 82 | 221 | 5.0 | 14.0 | 0.00 | 0.00 | 0.00 | 88 | 1011.9 |
| 20260506173051 | 81 | 153 | 6.0 | 12.0 | 0.00 | 0.00 | 0.00 | 90 | 1012.0 |
| 20260506171551 | 81 | 209 | 5.0 | 11.0 | 0.00 | 0.00 | 0.00 | 90 | 1012.0 |
| 20260506170043 | 79 | 171 | 5.0 | 11.0 | 0.00 | 0.00 | 0.00 | 92 | 1012.1 |
| 20260506164554 | 79 | 137 | 4.0 | 10.0 | 0.00 | 0.00 | 0.00 | 93 | 1012.1 |
| 20260506163045 | 79 | 170 | 3.0 | 8.0 | 0.00 | 0.00 | 0.00 | 93 | 1012.2 |
| 20260506161551 | 78 | 146 | 3.0 | 8.0 | 0.00 | 0.00 | 0.00 | 93 | 1012.2 |
| 20260506160050 | 78 | 166 | 4.0 | 9.0 | 0.00 | 0.00 | 0.00 | 93 | 1012.0 |
| 20260506154553 | 78 | 142 | 4.0 | 9.0 | 0.00 | 0.00 | 0.00 | 93 | 1011.9 |
| 20260506153038 | 78 | 140 | 3.0 | 10.0 | 0.00 | 0.00 | 0.00 | 94 | 1011.7 |
| 20260506151537 | 78 | 153 | 3.0 | 9.0 | 0.00 | 0.00 | 0.00 | 95 | 1011.6 |
| 20260506150037 | 77 | 150 | 3.0 | 8.0 | 0.00 | 0.00 | 0.00 | 95 | 1011.5 |
| 20260506144546 | 77 | 184 | 3.0 | 9.0 | 0.00 | 0.00 | 0.00 | 95 | 1011.5 |
| 20260506143042 | 77 | 177 | 4.0 | 8.0 | 0.00 | 0.00 | 0.00 | 96 | 1011.4 |
| 20260506141601 | 77 | 178 | 3.0 | 9.0 | 0.00 | 0.00 | 0.00 | 96 | 1011.3 |
| 20260506140040 | 77 | 130 | 4.0 | 8.0 | 0.00 | 0.00 | 0.00 | 96 | 1011.3 |
| 20260506134537 | 76 | 147 | 3.0 | 9.0 | 0.00 | 0.00 | 0.00 | 97 | 1011.2 |
| 20260506133037 | 76 | 171 | 3.0 | 7.0 | 0.00 | 0.00 | 0.00 | 97 | 1011.4 |
| 20260506131544 | 76 | 156 | 3.0 | 6.0 | 0.00 | 0.00 | 0.00 | 97 | 1011.2 |
| 20260506130045 | 75 | 148 | 2.0 | 5.0 | 0.00 | 0.00 | 0.00 | 97 | 1011.4 |
| 20260506124546 | 75 | 137 | 2.0 | 5.0 | 0.00 | 0.00 | 0.00 | 97 | 1011.2 |
| 20260506123044 | 75 | 144 | 3.0 | 7.0 | 0.00 | 0.00 | 0.00 | 97 | 1010.9 |
| 20260506121538 | 75 | 165 | 3.0 | 6.0 | 0.00 | 0.00 | 0.00 | 97 | 1010.7 |
| 20260506120104 | 75 | 164 | 3.0 | 6.0 | 0.00 | 0.00 | 0.00 | 97 | 1010.5 |
| 20260506114547 | 75 | 153 | 3.0 | 9.0 | 0.00 | 0.00 | 0.00 | 97 | 1010.6 |
| 20260506113044 | 75 | 160 | 3.0 | 7.0 | 0.00 | 0.00 | 0.00 | 97 | 1010.4 |
| 20260506111544 | 75 | 157 | 4.0 | 9.0 | 0.00 | 0.00 | 0.00 | 97 | 1010.3 |
| 20260506110041 | 75 | 153 | 4.0 | 10.0 | 0.00 | 0.00 | 0.00 | 97 | 1010.2 |
| 20260506104541 | 75 | 142 | 4.0 | 10.0 | 0.00 | 0.00 | 0.00 | 97 | 1009.9 |
| 20260506103044 | 75 | 173 | 4.0 | 9.0 | 0.00 | 0.00 | 0.00 | 97 | 1009.9 |
| 20260506101548 | 75 | 160 | 4.0 | 11.0 | 0.00 | 0.00 | 0.00 | 97 | 1009.8 |
| 20260506100044 | 75 | 168 | 5.0 | 10.0 | 0.00 | 0.00 | 0.00 | 97 | 1009.8 |
| 20260506094546 | 75 | 163 | 4.0 | 10.0 | 0.00 | 0.00 | 0.00 | 97 | 1009.9 |
| 20260506093046 | 75 | 184 | 3.0 | 8.0 | 0.00 | 0.00 | 0.00 | 97 | 1010.0 |
| 20260506091538 | 75 | 163 | 4.0 | 9.0 | 0.00 | 0.00 | 0.00 | 97 | 1010.2 |
| 20260506090045 | 75 | 163 | 2.0 | 6.0 | 0.00 | 0.00 | 0.00 | 96 | 1010.3 |
| 20260506084537 | 75 | 157 | 1.0 | 7.0 | 0.00 | 0.00 | 0.00 | 96 | 1010.4 |
| 20260506083045 | 75 | 221 | 1.0 | 9.0 | 0.00 | 0.00 | 0.00 | 96 | 1010.4 |
| 20260506081549 | 74 | 137 | 0.0 | 2.0 | 0.00 | 0.00 | 0.00 | 96 | 1010.5 |
| 20260506073050 | 75 | 93 | 3.0 | 7.0 | 0.00 | 0.00 | 0.00 | 96 | 1010.6 |
| 20260506071550 | 75 | 163 | 3.0 | 8.0 | 0.00 | 0.00 | 0.00 | 95 | 1010.7 |
| 20260506070107 | 75 | 212 | 4.0 | 9.0 | 0.00 | 0.00 | 0.00 | 95 | 1010.7 |
| 20260506061538 | 75 | 177 | 5.0 | 10.0 | 0.00 | 0.00 | 0.00 | 94 | 1010.7 |
| 20260506044556 | 75 | 157 | 3.0 | 9.0 | 0.00 | 0.00 | 0.00 | 94 | 1011.0 |
| 20260506043046 | 75 | 173 | 5.0 | 11.0 | 0.00 | 0.00 | 0.00 | 93 | 1010.9 |
| 20260506041551 | 75 | 159 | 4.0 | 11.0 | 0.00 | 0.00 | 0.00 | 93 | 1010.8 |
| 20260506040046 | 75 | 149 | 8.0 | 16.0 | 0.00 | 0.00 | 0.00 | 93 | 1010.7 |
| 20260506034542 | 75 | 171 | 5.0 | 14.0 | 0.00 | 0.00 | 0.00 | 93 | 1010.8 |
| 20260506033038 | 75 | 171 | 7.0 | 15.0 | 0.00 | 0.00 | 0.00 | 93 | 1010.5 |
| 20260506031553 | 75 | 215 | 7.0 | 12.0 | 0.00 | 0.00 | 0.00 | 94 | 1010.4 |
| 20260506024546 | 75 | 155 | 6.0 | 14.0 | 0.00 | 0.00 | 0.00 | 94 | 1010.0 |
| 20260506023045 | 75 | 155 | 7.0 | 15.0 | 0.00 | 0.00 | 0.00 | 94 | 1009.8 |
| 20260506021539 | 76 | 167 | 6.0 | 16.0 | 0.00 | 0.00 | 0.00 | 93 | 1009.6 |
| 20260506020037 | 76 | 173 | 6.0 | 14.0 | 0.00 | 0.00 | 0.00 | 92 | 1009.6 |
| 20260506014544 | 76 | 162 | 6.0 | 13.0 | 0.00 | 0.00 | 0.00 | 92 | 1009.5 |